When you browse on this site, cookies collect data to enhance your experience and personalize the content and advertising you see.
Visit our Privacy Policy to learn more. By continuing to use the site, you agree to this use of cookies and data.
  • In Austria
  • List of Countries
  • For 7 days
  • Water Temperature
  • Satellite Maps
  • Weather Map
  • News
  • Weather Widgets
  • user-avatar
    Login

    Hourly Weather Kandahar

    Today, 22 April, Monday

    Time Temperature Precipitation Wind Pressure Humidity
    00:00 +27°C° 0 mm 2 mps 673 mmHg 22%
    01:00 +27°C° 0 mm 1 mps 673 mmHg 24%
    02:00 +26°C° 0 mm 1 mps 672 mmHg 24%
    03:00 +23°C° 0 mm 0 mps 672 mmHg 25%
    04:00 +22°C° 0 mm 0 mps 672 mmHg 26%
    05:00 +26°C° 0 mm 1 mps 673 mmHg 23%
    06:00 +27°C° 0 mm 1 mps 674 mmHg 21%
    07:00 +29°C° 0 mm 1 mps 674 mmHg 18%
    08:00 +30°C° 0 mm 2 mps 675 mmHg 16%
    09:00 +31°C° 0 mm 2 mps 675 mmHg 14%
    10:00 +34°C° 0 mm 3 mps 675 mmHg 11%
    11:00 +35°C° 0 mm 3 mps 675 mmHg 10%
    12:00 +36°C° 0 mm 3 mps 675 mmHg 9%
    13:00 +37°C° 0 mm 4 mps 675 mmHg 9%
    14:00 +37°C° 0 mm 4 mps 675 mmHg 8%
    15:00 +37°C° 0 mm 4 mps 674 mmHg 8%
    16:00 +37°C° 0 mm 4 mps 674 mmHg 8%
    17:00 +36°C° 0 mm 4 mps 674 mmHg 10%
    18:00 +35°C° 0 mm 3 mps 674 mmHg 12%
    19:00 +34°C° 0 mm 2 mps 674 mmHg 13%
    20:00 +32°C° 0 mm 2 mps 674 mmHg 14%
    21:00 +31°C° 0 mm 2 mps 674 mmHg 16%
    22:00 +30°C° 0 mm 1 mps 674 mmHg 17%
    23:00 +30°C° 0 mm 4 mps 674 mmHg 20%

    Tomorrow, 23 April, Tuesday

    Time Temperature Precipitation Wind Pressure Humidity
    00:00 +29°C° 0 mm 7 mps 674 mmHg 23%
    01:00 +29°C° 0 mm 10 mps 674 mmHg 27%
    02:00 +28°C° 0 mm 7 mps 674 mmHg 29%
    03:00 +28°C° 0 mm 5 mps 674 mmHg 31%
    04:00 +27°C° 0 mm 2 mps 674 mmHg 33%
    05:00 +28°C° 0 mm 2 mps 674 mmHg 32%
    06:00 +28°C° 0 mm 2 mps 675 mmHg 31%
    07:00 +28°C° 0 mm 2 mps 675 mmHg 30%
    08:00 +30°C° 0 mm 2 mps 675 mmHg 27%
    09:00 +31°C° 0 mm 2 mps 676 mmHg 24%
    10:00 +32°C° 0 mm 2 mps 676 mmHg 21%
    11:00 +34°C° 0 mm 3 mps 676 mmHg 20%
    12:00 +35°C° 0 mm 4 mps 676 mmHg 18%
    13:00 +36°C° 0 mm 5 mps 675 mmHg 16%
    14:00 +36°C° 0 mm 5 mps 675 mmHg 16%
    15:00 +36°C° 0 mm 6 mps 675 mmHg 17%
    16:00 +36°C° 0 mm 7 mps 674 mmHg 17%
    17:00 +35°C° 0 mm 7 mps 674 mmHg 19%
    18:00 +34°C° 0 mm 7 mps 674 mmHg 20%
    19:00 +33°C° 0 mm 7 mps 674 mmHg 22%
    20:00 +32°C° 0 mm 6 mps 674 mmHg 25%
    21:00 +30°C° 0 mm 4 mps 675 mmHg 27%
    22:00 +29°C° 0 mm 2 mps 675 mmHg 30%
    23:00 +28°C° 0.2 mm 2 mps 675 mmHg 32%

    Day after tomorrow, 24 April, Wednesday

    Time Temperature Precipitation Wind Pressure Humidity
    00:00 +28°C° 0.2 mm 2 mps 675 mmHg 34%
    01:00 +27°C° 0.2 mm 3 mps 675 mmHg 36%
    02:00 +27°C° 0.1 mm 2 mps 674 mmHg 39%
    03:00 +26°C° 0.1 mm 2 mps 674 mmHg 41%
    04:00 +25°C° 0.1 mm 2 mps 673 mmHg 43%
    05:00 +26°C° 0.4 mm 2 mps 673 mmHg 42%
    06:00 +26°C° 0.4 mm 3 mps 674 mmHg 41%
    07:00 +26°C° 0.4 mm 4 mps 674 mmHg 40%
    08:00 +28°C° 0.1 mm 5 mps 674 mmHg 34%
    09:00 +30°C° 0.1 mm 7 mps 675 mmHg 28%
    10:00 +33°C° 0.1 mm 8 mps 675 mmHg 22%
    11:00 +34°C° 0 mm 9 mps 675 mmHg 20%
    12:00 +34°C° 0 mm 9 mps 675 mmHg 17%
    13:00 +36°C° 0 mm 10 mps 674 mmHg 15%
    14:00 +34°C° 0 mm 10 mps 674 mmHg 16%
    15:00 +33°C° 0 mm 10 mps 673 mmHg 17%
    16:00 +32°C° 0 mm 10 mps 673 mmHg 19%
    17:00 +31°C° 0 mm 9 mps 673 mmHg 21%
    18:00 +29°C° 0 mm 8 mps 673 mmHg 23%
    19:00 +27°C° 0 mm 7 mps 673 mmHg 26%
    20:00 +26°C° 0 mm 6 mps 674 mmHg 26%
    21:00 +24°C° 0 mm 6 mps 674 mmHg 26%
    22:00 +25°C° 0 mm 5 mps 674 mmHg 27%
    23:00 +23°C° 0 mm 5 mps 674 mmHg 28%

    25 April, Thursday

    Time Temperature Precipitation Wind Pressure Humidity
    00:00 +22°C° 0 mm 4 mps 674 mmHg 29%
    01:00 +21°C° 0 mm 3 mps 674 mmHg 30%
    02:00 +21°C° 0 mm 3 mps 674 mmHg 31%
    03:00 +20°C° 0 mm 3 mps 674 mmHg 33%
    04:00 +19°C° 0 mm 2 mps 674 mmHg 35%
    05:00 +20°C° 0 mm 2 mps 674 mmHg 34%
    06:00 +20°C° 0 mm 2 mps 675 mmHg 33%
    07:00 +21°C° 0 mm 3 mps 676 mmHg 32%
    08:00 +22°C° 0 mm 3 mps 676 mmHg 28%
    09:00 +24°C° 0 mm 3 mps 676 mmHg 24%
    10:00 +25°C° 0 mm 3 mps 677 mmHg 20%
    11:00 +26°C° 0 mm 3 mps 677 mmHg 19%
    12:00 +27°C° 0 mm 4 mps 676 mmHg 18%
    13:00 +27°C° 0 mm 4 mps 676 mmHg 17%
    14:00 +28°C° 0 mm 5 mps 676 mmHg 17%
    15:00 +28°C° 0 mm 5 mps 675 mmHg 17%
    16:00 +28°C° 0 mm 5 mps 675 mmHg 17%
    17:00 +27°C° 0 mm 5 mps 675 mmHg 18%
    18:00 +26°C° 0 mm 5 mps 675 mmHg 19%
    19:00 +25°C° 0 mm 5 mps 675 mmHg 20%
    20:00 +25°C° 0 mm 4 mps 676 mmHg 21%
    21:00 +24°C° 0 mm 3 mps 676 mmHg 22%
    22:00 +22°C° 0 mm 3 mps 676 mmHg 22%
    23:00 +23°C° 0 mm 2 mps 675 mmHg 23%

    26 April, Friday

    Time Temperature Precipitation Wind Pressure Humidity
    00:00 +21°C° 0 mm 2 mps 675 mmHg 24%
    01:00 +21°C° 0 mm 1 mps 674 mmHg 25%
    02:00 +21°C° 0 mm 1 mps 674 mmHg 25%
    03:00 +21°C° 0 mm 1 mps 674 mmHg 25%
    04:00 +19°C° 0 mm 2 mps 674 mmHg 25%
    05:00 +20°C° 0 mm 2 mps 675 mmHg 24%
    06:00 +20°C° 0 mm 2 mps 676 mmHg 22%
    07:00 +21°C° 0 mm 2 mps 676 mmHg 21%
    08:00 +22°C° 0 mm 3 mps 676 mmHg 19%
    09:00 +24°C° 0 mm 3 mps 677 mmHg 17%
    10:00 +25°C° 0 mm 4 mps 677 mmHg 15%
    11:00 +26°C° 0 mm 4 mps 677 mmHg 14%
    12:00 +27°C° 0 mm 5 mps 677 mmHg 13%
    13:00 +28°C° 0 mm 5 mps 676 mmHg 12%
    14:00 +28°C° 0 mm 5 mps 676 mmHg 12%
    15:00 +28°C° 0 mm 5 mps 676 mmHg 12%
    16:00 +28°C° 0 mm 5 mps 675 mmHg 12%
    17:00 +27°C° 0 mm 5 mps 676 mmHg 13%
    18:00 +26°C° 0 mm 5 mps 676 mmHg 15%
    19:00 +25°C° 0 mm 4 mps 676 mmHg 16%
    20:00 +25°C° 0 mm 4 mps 676 mmHg 18%
    21:00 +23°C° 0 mm 4 mps 676 mmHg 19%
    22:00 +22°C° 0 mm 4 mps 676 mmHg 21%
    23:00 +21°C° 0 mm 3 mps 676 mmHg 22%

    27 April, Saturday

    Time Temperature Precipitation Wind Pressure Humidity
    00:00 +21°C° 0 mm 3 mps 676 mmHg 23%
    01:00 +20°C° 0 mm 2 mps 675 mmHg 24%
    02:00 +20°C° 0 mm 2 mps 675 mmHg 24%
    03:00 +19°C° 0 mm 2 mps 675 mmHg 25%
    04:00 +19°C° 0 mm 2 mps 675 mmHg 25%
    05:00 +19°C° 0 mm 2 mps 675 mmHg 23%
    06:00 +20°C° 0 mm 2 mps 676 mmHg 21%
    07:00 +20°C° 0 mm 3 mps 676 mmHg 19%
    08:00 +22°C° 0 mm 3 mps 677 mmHg 17%
    09:00 +23°C° 0 mm 4 mps 677 mmHg 15%
    10:00 +25°C° 0 mm 5 mps 678 mmHg 13%
    11:00 +26°C° 0 mm 5 mps 677 mmHg 13%
    12:00 +27°C° 0 mm 6 mps 677 mmHg 12%
    13:00 +28°C° 0 mm 6 mps 677 mmHg 12%
    14:00 +28°C° 0 mm 6 mps 676 mmHg 12%
    15:00 +28°C° 0 mm 7 mps 676 mmHg 12%
    16:00 +28°C° 0 mm 7 mps 676 mmHg 13%
    17:00 +27°C° 0 mm 6 mps 676 mmHg 14%
    18:00 +26°C° 0 mm 6 mps 676 mmHg 15%
    19:00 +25°C° 0 mm 5 mps 676 mmHg 16%
    20:00 +23°C° 0 mm 5 mps 676 mmHg 17%
    21:00 +22°C° 0 mm 4 mps 676 mmHg 18%
    22:00 +21°C° 0 mm 4 mps 676 mmHg 18%
    23:00 +21°C° 0 mm 3 mps 676 mmHg 20%
    Show more